Starlink 11747

operational
NORAD ID: 64322 Int'l Des: 2025-124 Owner: SPXS Country: US Constellation: starlink
LEOCIRCULAR

Über Starlink 11747

Beschreibung wird geladen...

Live-Position

3D-Globus wird geladen...

Nächste Überflüge

Höhenverlauf

Altitude vs Time

uPlot chart will show altitude changes over time

Zweizeiliger Elementsatz

1 64322U 25124F 25355.10115509 .00203721 00000-0 15505-2 0 9996
2 64322 43.0035 142.9929 0002180 272.1087 87.9531 15.70871405 30473
Epoch: 21. Dez. 2025 • Age: 8 hours

Aktueller Status

Höhe 355.5 km
Geschwindigkeit 7.70 km/s
Subsatellitenpunkt 3.41°N, 96.7°W
Startdatum 10. Juni 2025
Alter 0.5 years
Typ internet

Technische Details

Klassifizierung Payload
Masse 960.00 kg
Trockenmasse 910.00 kg
Gesamtmasse 960.00 kg
Länge 0.30 m
Durchmesser 4.10 m
Spannweite 29.00 m
Form Box + pan
Hersteller SPXS
Bus-Typ Starlink V2MD
Phasenstatus In Orbit
Besitzer/Staat SPXS/US

Große Konstellationen

Loading constellations...